User: anonymous   Login
Location: Unspecified
(0.0000°N, 0.0000°E)
Time: 21:07:48
(UTC+00:00)
Language:

SOHLA-1 (MAIDO-1) - Orbit

View from above orbital plane
View from above orbital plane
View from above satellite
View from above satellite

Ground track
Ground track

The orbit data is extracted from the following two-line orbital elements,

1 33496U 09002E   18173.50991744  .00000041  00000-0  15034-4 0  9997
2 33496  98.3601 337.3157 0004999 274.5291  85.5344 14.71765133505146
Epoch (UTC): 22 June 2018 12:14:16
Eccentricity: 0.0004999
inclination: 98.3601°
perigee height: 652 km
apogee height: 659 km
right ascension of ascending node: 337.3157°
argument of perigee: 274.5291°
revolutions per day: 14.71765133
mean anomaly at epoch: 85.5344°
orbit number at epoch: 50514

The dashed part of the orbit path shows where the satellite is in the earth's shadow,  

DLR